Time,TemperatureF,DewpointF,PressureIn,WindDirection,WindDirectionDegrees,WindSpeedMPH,WindSpeedGustMPH,Humidity,HourlyPrecipIn,Conditions,Clouds,dailyrainin,SoftwareType,DateUTC
2013-05-16 00:01:00,52.0,51.8,29.72,WSW,244,0.0,-999.0,99,-99.99,,,-99.99,custom,2013-05-16 04:01:00,
2013-05-16 00:06:00,52.0,51.8,29.69,SW,223,1.0,-999.0,99,-99.99,,,-99.99,custom,2013-05-16 04:06:00,
2013-05-16 00:11:00,52.2,52.0,29.71,SSW,201,1.0,-999.0,99,-99.99,,,-99.99,custom,2013-05-16 04:11:00,
2013-05-16 00:16:00,52.2,52.0,29.73,SSE,164,0.0,-999.0,99,-99.99,,,-99.99,custom,2013-05-16 04:16:00,
2013-05-16 00:21:00,52.2,52.0,29.72,SW,214,1.0,-999.0,99,-99.99,,,-99.99,custom,2013-05-16 04:21:00,
2013-05-16 00:26:00,52.0,51.8,29.72,SSW,204,1.0,-999.0,99,-99.99,,,-99.99,custom,2013-05-16 04:26:00,
2013-05-16 00:31:00,52.0,51.8,29.72,South,183,1.0,-999.0,99,-99.99,,,-99.99,custom,2013-05-16 04:31:00,
2013-05-16 00:36:00,52.0,51.8,29.77,South,188,0.0,-999.0,99,-99.99,,,-99.99,custom,2013-05-16 04:36:00,
2013-05-16 00:41:00,52.0,51.8,29.72,SSE,166,0.0,-999.0,99,-99.99,,,-99.99,custom,2013-05-16 04:41:00,
2013-05-16 00:46:00,51.8,51.6,29.73,South,173,0.0,-999.0,99,-99.99,,,-99.99,custom,2013-05-16 04:46:00,
2013-05-16 00:51:00,52.0,51.8,29.75,South,173,0.0,-999.0,99,-99.99,,,-99.99,custom,2013-05-16 04:51:00,
2013-05-16 00:56:00,51.8,51.6,29.73,South,186,0.0,-999.0,99,-99.99,,,-99.99,custom,2013-05-16 04:56:00,
2013-05-16 01:01:00,52.0,51.8,29.70,SSW,194,0.0,-999.0,99,-99.99,,,-99.99,custom,2013-05-16 05:01:00,
2013-05-16 01:06:00,51.6,51.4,29.73,South,173,0.0,-999.0,99,-99.99,,,-99.99,custom,2013-05-16 05:06:00,
2013-05-16 01:11:00,51.6,51.4,29.71,SSW,211,1.0,-999.0,99,-99.99,,,-99.99,custom,2013-05-16 05:11:00,
2013-05-16 01:16:00,51.6,51.4,29.70,SSW,199,1.0,-999.0,99,-99.99,,,-99.99,custom,2013-05-16 05:16:00,
2013-05-16 01:21:00,51.6,51.4,29.66,South,169,1.0,-999.0,99,-99.99,,,-99.99,custom,2013-05-16 05:21:00,
2013-05-16 01:26:00,51.8,51.6,29.73,SSE,157,0.0,-999.0,99,-99.99,,,-99.99,custom,2013-05-16 05:26:00,
2013-05-16 01:31:00,52.0,51.8,29.69,SSE,154,1.0,-999.0,99,-99.99,,,-99.99,custom,2013-05-16 05:31:00,
2013-05-16 01:36:00,51.8,51.6,29.72,SSE,161,2.0,-999.0,99,-99.99,,,-99.99,custom,2013-05-16 05:36:00,
2013-05-16 01:41:00,52.2,52.0,29.71,SSE,147,1.0,-999.0,99,-99.99,,,-99.99,custom,2013-05-16 05:41:00,
2013-05-16 01:46:00,52.2,52.0,29.73,SSE,160,1.0,-999.0,99,-99.99,,,-99.99,custom,2013-05-16 05:46:00,
2013-05-16 01:51:00,52.2,52.0,29.69,South,191,1.0,-999.0,99,-99.99,,,-99.99,custom,2013-05-16 05:51:00,
2013-05-16 01:56:00,51.8,51.6,29.71,South,176,1.0,-999.0,99,-99.99,,,-99.99,custom,2013-05-16 05:56:00,
2013-05-16 02:01:00,51.8,51.6,29.70,SE,140,1.0,-999.0,99,-99.99,,,-99.99,custom,2013-05-16 06:01:00,
2013-05-16 02:06:00,52.0,51.8,29.70,ESE,114,0.0,-999.0,99,-99.99,,,-99.99,custom,2013-05-16 06:06:00,
2013-05-16 02:11:00,52.3,52.2,29.70,SSW,198,0.0,-999.0,99,-99.99,,,-99.99,custom,2013-05-16 06:11:00,
2013-05-16 02:16:00,53.4,53.2,29.70,ESE,105,1.0,-999.0,99,-99.99,,,-99.99,custom,2013-05-16 06:16:00,
2013-05-16 02:21:00,54.3,53.8,29.71,SE,127,0.0,-999.0,98,-99.99,,,-99.99,custom,2013-05-16 06:21:00,
2013-05-16 02:26:00,54.7,54.0,29.70,NNW,339,0.0,-999.0,97,-99.99,,,-99.99,custom,2013-05-16 06:26:00,
2013-05-16 02:31:00,55.2,52.9,29.72,ENE,71,1.0,-999.0,92,-99.99,,,-99.99,custom,2013-05-16 06:31:00,
2013-05-16 02:36:00,55.6,53.6,29.70,SW,234,2.0,-999.0,93,-99.99,,,-99.99,custom,2013-05-16 06:36:00,
2013-05-16 02:41:00,55.8,54.9,29.68,East,93,1.0,-999.0,97,-99.99,,,-99.99,custom,2013-05-16 06:41:00,
2013-05-16 02:46:00,56.1,54.3,29.68,NE,56,0.0,-999.0,94,-99.99,,,-99.99,custom,2013-05-16 06:46:00,
2013-05-16 02:51:00,56.1,54.0,29.69,NNE,15,1.0,-999.0,92,-99.99,,,-99.99,custom,2013-05-16 06:51:00,
2013-05-16 02:56:00,56.1,51.1,29.72,NE,44,1.0,-999.0,83,-99.99,,,-99.99,custom,2013-05-16 06:56:00,
2013-05-16 03:01:00,56.3,51.6,29.69,NE,55,1.0,-999.0,84,-99.99,,,-99.99,custom,2013-05-16 07:01:00,
2013-05-16 03:06:00,57.0,54.0,29.67,ENE,77,0.0,-999.0,89,-99.99,,,-99.99,custom,2013-05-16 07:06:00,
2013-05-16 03:11:00,57.2,53.4,29.68,ENE,78,0.0,-999.0,87,-99.99,,,-99.99,custom,2013-05-16 07:11:00,
2013-05-16 03:16:00,56.8,54.1,29.70,ENE,77,0.0,-999.0,90,-99.99,,,-99.99,custom,2013-05-16 07:16:00,
2013-05-16 03:21:00,56.7,55.2,29.69,South,173,0.0,-999.0,95,-99.99,,,-99.99,custom,2013-05-16 07:21:00,
2013-05-16 03:26:00,55.8,54.0,29.68,SSE,159,1.0,-999.0,94,-99.99,,,-99.99,custom,2013-05-16 07:26:00,
2013-05-16 03:31:00,54.7,54.0,29.64,SSE,150,0.0,-999.0,97,-99.99,,,-99.99,custom,2013-05-16 07:31:00,
2013-05-16 03:36:00,54.9,54.0,29.70,South,171,1.0,-999.0,96,-99.99,,,-99.99,custom,2013-05-16 07:36:00,
2013-05-16 03:41:00,55.0,54.0,29.68,South,187,1.0,-999.0,96,-99.99,,,-99.99,custom,2013-05-16 07:41:00,
2013-05-16 03:46:00,55.8,52.3,29.67,SSW,197,1.0,-999.0,88,-99.99,,,-99.99,custom,2013-05-16 07:46:00,
2013-05-16 03:51:00,55.9,53.8,29.68,SSE,150,1.0,-999.0,93,-99.99,,,-99.99,custom,2013-05-16 07:51:00,
2013-05-16 03:56:00,55.9,54.0,29.66,SSW,204,0.0,-999.0,93,-99.99,,,-99.99,custom,2013-05-16 07:56:00,
2013-05-16 04:01:00,56.1,50.4,29.66,WSW,249,3.0,-999.0,81,-99.99,,,-99.99,custom,2013-05-16 08:01:00,
2013-05-16 04:07:00,56.1,50.9,29.70,South,185,2.0,-999.0,82,-99.99,,,-99.99,custom,2013-05-16 08:07:00,
2013-05-16 04:12:00,56.1,51.8,29.70,SSE,148,1.0,-999.0,85,-99.99,,,-99.99,custom,2013-05-16 08:12:00,
2013-05-16 04:17:00,56.1,49.6,29.70,SW,217,1.0,-999.0,79,-99.99,,,-99.99,custom,2013-05-16 08:17:00,
2013-05-16 04:22:00,56.1,48.9,29.68,SW,232,3.0,-999.0,77,-99.99,,,-99.99,custom,2013-05-16 08:22:00,
2013-05-16 04:27:00,55.9,51.6,29.69,South,169,1.0,-999.0,85,-99.99,,,-99.99,custom,2013-05-16 08:27:00,
2013-05-16 04:32:00,56.1,50.2,29.68,SSW,212,1.0,-999.0,80,-99.99,,,-99.99,custom,2013-05-16 08:32:00,
2013-05-16 04:37:00,55.9,48.4,29.70,SSW,209,5.0,-999.0,76,-99.99,,,-99.99,custom,2013-05-16 08:37:00,
2013-05-16 04:42:00,55.9,49.5,29.70,SSW,194,2.0,-999.0,79,-99.99,,,-99.99,custom,2013-05-16 08:42:00,
2013-05-16 04:47:00,55.9,50.7,29.73,South,173,0.0,-999.0,82,-99.99,,,-99.99,custom,2013-05-16 08:47:00,
2013-05-16 04:52:00,55.8,48.6,29.70,South,175,2.0,-999.0,77,-99.99,,,-99.99,custom,2013-05-16 08:52:00,
2013-05-16 04:57:00,55.4,48.9,29.72,West,271,4.0,-999.0,78,-99.99,,,-99.99,custom,2013-05-16 08:57:00,
2013-05-16 05:02:00,55.4,48.7,29.75,South,170,2.0,-999.0,78,-99.99,,,-99.99,custom,2013-05-16 09:02:00,
2013-05-16 05:07:00,55.2,48.6,29.72,West,278,2.0,-999.0,78,-99.99,,,-99.99,custom,2013-05-16 09:07:00,
2013-05-16 05:12:00,55.0,47.1,29.71,South,182,4.0,-999.0,74,-99.99,,,-99.99,custom,2013-05-16 09:12:00,
2013-05-16 05:17:00,55.6,48.4,29.69,South,185,1.0,-999.0,76,-99.99,,,-99.99,custom,2013-05-16 09:17:00,
2013-05-16 05:22:00,55.8,48.6,29.72,South,171,2.0,-999.0,76,-99.99,,,-99.99,custom,2013-05-16 09:22:00,
2013-05-16 05:27:00,55.8,48.4,29.72,South,173,0.0,-999.0,76,-99.99,,,-99.99,custom,2013-05-16 09:27:00,
2013-05-16 05:32:00,55.4,49.8,29.72,South,180,1.0,-999.0,82,-99.99,,,-99.99,custom,2013-05-16 09:32:00,
2013-05-16 05:37:00,55.6,49.5,29.71,SSE,154,1.0,-999.0,80,-99.99,,,-99.99,custom,2013-05-16 09:37:00,
2013-05-16 05:42:00,55.4,47.7,29.72,South,184,2.0,-999.0,75,-99.99,,,-99.99,custom,2013-05-16 09:42:00,
2013-05-16 05:47:00,55.0,48.7,29.74,SSW,195,1.0,-999.0,79,-99.99,,,-99.99,custom,2013-05-16 09:47:00,
2013-05-16 05:52:00,55.0,50.0,29.73,SSE,166,1.0,-999.0,83,-99.99,,,-99.99,custom,2013-05-16 09:52:00,
2013-05-16 05:57:00,55.0,50.0,29.73,SE,134,1.0,-999.0,83,-99.99,,,-99.99,custom,2013-05-16 09:57:00,
2013-05-16 06:02:00,54.5,49.1,29.71,South,170,2.0,-999.0,82,-99.99,,,-99.99,custom,2013-05-16 10:02:00,
2013-05-16 06:07:00,54.5,51.1,29.71,SE,139,1.0,-999.0,88,-99.99,,,-99.99,custom,2013-05-16 10:07:00,
2013-05-16 06:12:00,54.0,49.8,29.73,SSE,167,1.0,-999.0,86,-99.99,,,-99.99,custom,2013-05-16 10:12:00,
2013-05-16 06:17:00,53.8,52.3,29.72,SE,131,0.0,-999.0,95,-99.99,,,-99.99,custom,2013-05-16 10:17:00,
2013-05-16 06:22:00,54.3,50.2,29.72,East,99,1.0,-999.0,85,-99.99,,,-99.99,custom,2013-05-16 10:22:00,
2013-05-16 06:27:00,54.7,51.1,29.71,SSE,152,0.0,-999.0,87,-99.99,,,-99.99,custom,2013-05-16 10:27:00,
2013-05-16 06:32:00,55.0,50.7,29.68,SE,124,0.0,-999.0,85,-99.99,,,-99.99,custom,2013-05-16 10:32:00,
2013-05-16 06:37:00,55.6,49.5,29.70,SE,132,1.0,-999.0,80,-99.99,,,-99.99,custom,2013-05-16 10:37:00,
2013-05-16 06:42:00,56.3,50.5,29.72,SE,143,1.0,-999.0,81,-99.99,,,-99.99,custom,2013-05-16 10:42:00,
2013-05-16 06:47:00,56.3,50.5,29.71,SSW,199,0.0,-999.0,81,-99.99,,,-99.99,custom,2013-05-16 10:47:00,
2013-05-16 06:52:00,56.8,50.7,29.70,SE,140,0.0,-999.0,80,-99.99,,,-99.99,custom,2013-05-16 10:52:00,
2013-05-16 06:57:00,57.4,50.2,29.70,South,179,0.0,-999.0,77,-99.99,,,-99.99,custom,2013-05-16 10:57:00,
2013-05-16 07:02:00,57.7,49.1,29.69,South,182,1.0,-999.0,73,-99.99,,,-99.99,custom,2013-05-16 11:02:00,
2013-05-16 07:07:00,57.9,49.5,29.70,East,86,0.0,-999.0,73,-99.99,,,-99.99,custom,2013-05-16 11:07:00,
2013-05-16 07:12:00,59.4,50.9,29.73,East,82,0.0,-999.0,73,-99.99,,,-99.99,custom,2013-05-16 11:12:00,
2013-05-16 07:17:00,59.7,50.4,29.72,North,355,0.0,-999.0,71,-99.99,,,-99.99,custom,2013-05-16 11:17:00,
2013-05-16 07:22:00,61.0,51.4,29.71,South,185,0.0,-999.0,71,-99.99,,,-99.99,custom,2013-05-16 11:22:00,
2013-05-16 07:27:00,62.4,49.5,29.71,NNE,25,1.0,-999.0,62,-99.99,,,-99.99,custom,2013-05-16 11:27:00,
2013-05-16 07:32:00,62.8,50.2,29.72,NE,41,1.0,-999.0,63,-99.99,,,-99.99,custom,2013-05-16 11:32:00,
2013-05-16 07:37:00,63.1,49.5,29.72,NNE,21,1.0,-999.0,61,-99.99,,,-99.99,custom,2013-05-16 11:37:00,
2013-05-16 07:42:00,62.8,49.3,29.70,SE,144,0.0,-999.0,61,-99.99,,,-99.99,custom,2013-05-16 11:42:00,
2013-05-16 07:47:00,61.7,48.2,29.71,SW,220,1.0,-999.0,61,-99.99,,,-99.99,custom,2013-05-16 11:47:00,
2013-05-16 07:52:00,62.1,48.6,29.70,East,89,1.0,-999.0,61,-99.99,,,-99.99,custom,2013-05-16 11:52:00,
2013-05-16 07:57:00,61.7,47.7,29.76,West,260,1.0,-999.0,60,-99.99,,,-99.99,custom,2013-05-16 11:57:00,
2013-05-16 08:02:00,62.4,48.6,29.72,West,262,0.0,-999.0,60,-99.99,,,-99.99,custom,2013-05-16 12:02:00,
2013-05-16 08:07:00,62.8,49.8,29.75,SW,217,1.0,-999.0,62,-99.99,,,-99.99,custom,2013-05-16 12:07:00,
2013-05-16 08:12:00,64.2,53.1,29.73,SSE,164,0.0,-999.0,67,-99.99,,,-99.99,custom,2013-05-16 12:12:00,
2013-05-16 08:17:00,63.9,47.7,29.72,NNE,16,1.0,-999.0,55,-99.99,,,-99.99,custom,2013-05-16 12:17:00,
2013-05-16 08:22:00,63.9,48.7,29.73,WSW,249,1.0,-999.0,58,-99.99,,,-99.99,custom,2013-05-16 12:22:00,
2013-05-16 08:27:00,64.2,48.9,29.74,NW,315,1.0,-999.0,57,-99.99,,,-99.99,custom,2013-05-16 12:27:00,
2013-05-16 08:32:00,64.6,46.9,29.78,WNW,297,2.0,-999.0,52,-99.99,,,-99.99,custom,2013-05-16 12:32:00,
2013-05-16 08:37:00,65.8,49.3,29.74,SSW,205,3.0,-999.0,55,-99.99,,,-99.99,custom,2013-05-16 12:37:00,
2013-05-16 08:42:00,65.8,48.6,29.76,SW,215,4.0,-999.0,53,-99.99,,,-99.99,custom,2013-05-16 12:42:00,
2013-05-16 08:47:00,67.3,53.4,29.76,SE,124,1.0,-999.0,61,-99.99,,,-99.99,custom,2013-05-16 12:47:00,
2013-05-16 08:52:00,66.0,48.2,29.75,NW,309,0.0,-999.0,52,-99.99,,,-99.99,custom,2013-05-16 12:52:00,
2013-05-16 08:57:00,64.9,49.3,29.78,WNW,283,2.0,-999.0,57,-99.99,,,-99.99,custom,2013-05-16 12:57:00,
2013-05-16 09:02:00,64.0,43.9,29.75,WNW,283,5.0,-999.0,48,-99.99,,,-99.99,custom,2013-05-16 13:02:00,
2013-05-16 09:07:00,65.1,49.3,29.75,SSW,208,1.0,-999.0,56,-99.99,,,-99.99,custom,2013-05-16 13:07:00,
2013-05-16 09:12:00,65.7,49.3,29.75,West,273,0.0,-999.0,55,-99.99,,,-99.99,custom,2013-05-16 13:12:00,
2013-05-16 09:17:00,66.2,50.0,29.78,NNW,344,0.0,-999.0,56,-99.99,,,-99.99,custom,2013-05-16 13:17:00,
2013-05-16 09:22:00,67.1,50.7,29.75,WNW,300,1.0,-999.0,56,-99.99,,,-99.99,custom,2013-05-16 13:22:00,
2013-05-16 09:27:00,67.3,47.7,29.75,SW,220,0.0,-999.0,49,-99.99,,,-99.99,custom,2013-05-16 13:27:00,
2013-05-16 09:32:00,67.5,48.6,29.76,SW,219,5.0,-999.0,51,-99.99,,,-99.99,custom,2013-05-16 13:32:00,
2013-05-16 09:37:00,67.8,48.9,29.76,SSW,198,1.0,-999.0,51,-99.99,,,-99.99,custom,2013-05-16 13:37:00,
2013-05-16 09:42:00,68.0,47.3,29.78,SW,223,4.0,-999.0,47,-99.99,,,-99.99,custom,2013-05-16 13:42:00,
2013-05-16 09:47:00,68.0,47.3,29.76,WSW,242,3.0,-999.0,47,-99.99,,,-99.99,custom,2013-05-16 13:47:00,
2013-05-16 09:52:00,68.0,49.6,29.73,WNW,298,2.0,-999.0,52,-99.99,,,-99.99,custom,2013-05-16 13:52:00,
2013-05-16 09:57:00,67.1,46.9,29.75,North,354,2.0,-999.0,48,-99.99,,,-99.99,custom,2013-05-16 13:57:00,
2013-05-16 10:02:00,67.5,48.0,29.78,SW,234,4.0,-999.0,49,-99.99,,,-99.99,custom,2013-05-16 14:02:00,
2013-05-16 10:07:00,67.1,45.7,29.73,WNW,286,4.0,-999.0,46,-99.99,,,-99.99,custom,2013-05-16 14:07:00,
2013-05-16 10:12:00,67.8,46.4,29.75,WSW,253,5.0,-999.0,46,-99.99,,,-99.99,custom,2013-05-16 14:12:00,
2013-05-16 10:17:00,69.3,50.2,29.73,WSW,244,4.0,-999.0,50,-99.99,,,-99.99,custom,2013-05-16 14:17:00,
2013-05-16 10:22:00,70.0,50.7,29.75,WSW,238,4.0,-999.0,50,-99.99,,,-99.99,custom,2013-05-16 14:22:00,
2013-05-16 10:27:00,68.4,44.2,29.77,WNW,296,9.0,-999.0,41,-99.99,,,-99.99,custom,2013-05-16 14:27:00,
2013-05-16 10:32:00,70.3,48.9,29.76,WSW,255,2.0,-999.0,46,-99.99,,,-99.99,custom,2013-05-16 14:32:00,
2013-05-16 10:37:00,71.2,47.8,29.78,SSW,207,6.0,-999.0,43,-99.99,,,-99.99,custom,2013-05-16 14:37:00,
2013-05-16 10:42:00,71.4,45.9,29.80,NW,308,4.0,-999.0,40,-99.99,,,-99.99,custom,2013-05-16 14:42:00,
2013-05-16 10:47:00,71.4,46.0,29.76,WSW,258,6.0,-999.0,40,-99.99,,,-99.99,custom,2013-05-16 14:47:00,
2013-05-16 10:52:00,70.9,44.6,29.75,West,267,5.0,-999.0,38,-99.99,,,-99.99,custom,2013-05-16 14:52:00,
2013-05-16 10:57:00,71.4,47.3,29.77,NNE,32,1.0,-999.0,42,-99.99,,,-99.99,custom,2013-05-16 14:57:00,
2013-05-16 11:02:00,71.4,45.0,29.76,WSW,256,8.0,-999.0,38,-99.99,,,-99.99,custom,2013-05-16 15:02:00,
2013-05-16 11:07:00,71.1,44.2,29.74,WSW,250,6.0,-999.0,38,-99.99,,,-99.99,custom,2013-05-16 15:07:00,
2013-05-16 11:12:00,72.1,45.3,29.75,WNW,298,7.0,-999.0,38,-99.99,,,-99.99,custom,2013-05-16 15:12:00,
2013-05-16 11:17:00,73.8,49.1,29.79,South,181,2.0,-999.0,41,-99.99,,,-99.99,custom,2013-05-16 15:17:00,
2013-05-16 11:22:00,72.9,45.1,29.78,West,265,11.0,-999.0,37,-99.99,,,-99.99,custom,2013-05-16 15:22:00,
2013-05-16 11:27:00,72.7,43.0,29.77,SW,231,5.0,-999.0,34,-99.99,,,-99.99,custom,2013-05-16 15:27:00,
2013-05-16 11:32:00,72.9,44.8,29.76,SW,234,6.0,-999.0,36,-99.99,,,-99.99,custom,2013-05-16 15:32:00,
2013-05-16 11:37:00,72.5,44.1,29.74,West,280,6.0,-999.0,36,-99.99,,,-99.99,custom,2013-05-16 15:37:00,
2013-05-16 11:42:00,73.2,45.7,29.76,SSW,213,7.0,-999.0,37,-99.99,,,-99.99,custom,2013-05-16 15:42:00,
2013-05-16 11:47:00,74.7,48.2,29.77,WSW,243,5.0,-999.0,39,-99.99,,,-99.99,custom,2013-05-16 15:47:00,
2013-05-16 11:52:00,75.2,48.0,29.75,SW,214,3.0,-999.0,38,-99.99,,,-99.99,custom,2013-05-16 15:52:00,
2013-05-16 11:57:00,73.8,43.5,29.72,West,261,4.0,-999.0,34,-99.99,,,-99.99,custom,2013-05-16 15:57:00,
2013-05-16 12:02:00,74.3,43.7,29.72,West,267,6.0,-999.0,33,-99.99,,,-99.99,custom,2013-05-16 16:02:00,
2013-05-16 12:07:00,75.9,47.5,29.74,West,278,4.0,-999.0,36,-99.99,,,-99.99,custom,2013-05-16 16:07:00,
2013-05-16 12:12:00,75.7,43.2,29.72,WNW,286,4.0,-999.0,31,-99.99,,,-99.99,custom,2013-05-16 16:12:00,
2013-05-16 12:17:00,76.6,43.9,29.70,WSW,244,3.0,-999.0,31,-99.99,,,-99.99,custom,2013-05-16 16:17:00,
2013-05-16 12:22:00,75.9,42.3,29.73,SSW,195,4.0,-999.0,30,-99.99,,,-99.99,custom,2013-05-16 16:22:00,
2013-05-16 12:27:00,76.6,46.2,29.74,NNW,337,2.0,-999.0,34,-99.99,,,-99.99,custom,2013-05-16 16:27:00,
2013-05-16 12:32:00,75.7,41.2,29.74,WNW,303,4.0,-999.0,29,-99.99,,,-99.99,custom,2013-05-16 16:32:00,
2013-05-16 12:37:00,75.7,39.2,29.75,West,260,5.0,-999.0,27,-99.99,,,-99.99,custom,2013-05-16 16:37:00,
2013-05-16 12:42:00,74.7,37.6,29.71,WNW,286,9.0,-999.0,26,-99.99,,,-99.99,custom,2013-05-16 16:42:00,
2013-05-16 12:47:00,75.4,39.6,29.72,NNW,329,7.0,-999.0,27,-99.99,,,-99.99,custom,2013-05-16 16:47:00,
2013-05-16 12:52:00,75.7,44.1,29.74,SW,232,9.0,-999.0,32,-99.99,,,-99.99,custom,2013-05-16 16:52:00,
2013-05-16 12:57:00,77.4,46.9,29.74,SSW,198,0.0,-999.0,34,-99.99,,,-99.99,custom,2013-05-16 16:57:00,
2013-05-16 13:02:00,77.5,43.7,29.73,SW,227,6.0,-999.0,30,-99.99,,,-99.99,custom,2013-05-16 17:02:00,
2013-05-16 13:07:00,76.1,40.8,29.75,West,276,6.0,-999.0,28,-99.99,,,-99.99,custom,2013-05-16 17:07:00,
2013-05-16 13:12:00,78.1,44.4,29.73,North,3,2.0,-999.0,30,-99.99,,,-99.99,custom,2013-05-16 17:12:00,
2013-05-16 13:17:00,79.0,47.5,29.72,NNW,328,2.0,-999.0,33,-99.99,,,-99.99,custom,2013-05-16 17:17:00,
2013-05-16 13:22:00,77.2,43.2,29.75,West,274,9.0,-999.0,30,-99.99,,,-99.99,custom,2013-05-16 17:22:00,
2013-05-16 13:27:00,77.5,45.7,29.74,NW,319,3.0,-999.0,32,-99.99,,,-99.99,custom,2013-05-16 17:27:00,
2013-05-16 13:32:00,78.3,45.5,29.75,WSW,239,5.0,-999.0,31,-99.99,,,-99.99,custom,2013-05-16 17:32:00,
2013-05-16 13:37:00,77.5,42.4,29.75,NW,307,4.0,-999.0,28,-99.99,,,-99.99,custom,2013-05-16 17:37:00,
2013-05-16 13:42:00,77.4,43.2,29.73,WNW,287,6.0,-999.0,29,-99.99,,,-99.99,custom,2013-05-16 17:42:00,
2013-05-16 13:47:00,77.2,41.0,29.73,SW,216,3.0,-999.0,27,-99.99,,,-99.99,custom,2013-05-16 17:47:00,
2013-05-16 13:52:00,77.4,41.5,29.74,SW,218,6.0,-999.0,28,-99.99,,,-99.99,custom,2013-05-16 17:52:00,
2013-05-16 13:57:00,77.9,43.3,29.75,South,183,4.0,-999.0,29,-99.99,,,-99.99,custom,2013-05-16 17:57:00,
2013-05-16 14:02:00,77.4,43.0,29.72,SW,226,11.0,-999.0,29,-99.99,,,-99.99,custom,2013-05-16 18:02:00,
2013-05-16 14:07:00,78.4,45.1,29.75,WNW,293,4.0,-999.0,30,-99.99,,,-99.99,custom,2013-05-16 18:07:00,
2013-05-16 14:13:00,76.8,40.6,29.75,WSW,238,9.0,-999.0,27,-99.99,,,-99.99,custom,2013-05-16 18:13:00,
2013-05-16 14:18:00,77.2,41.2,29.75,WNW,294,8.0,-999.0,27,-99.99,,,-99.99,custom,2013-05-16 18:18:00,
2013-05-16 14:23:00,77.0,40.6,29.74,WNW,287,9.0,-999.0,27,-99.99,,,-99.99,custom,2013-05-16 18:23:00,
2013-05-16 14:28:00,76.8,40.1,29.71,West,275,11.0,-999.0,26,-99.99,,,-99.99,custom,2013-05-16 18:28:00,
2013-05-16 14:33:00,78.3,43.3,29.73,West,270,8.0,-999.0,29,-99.99,,,-99.99,custom,2013-05-16 18:33:00,
2013-05-16 14:38:00,77.4,41.2,29.71,West,266,8.0,-999.0,27,-99.99,,,-99.99,custom,2013-05-16 18:38:00,
2013-05-16 14:43:00,77.4,43.3,29.72,WSW,252,8.0,-999.0,29,-99.99,,,-99.99,custom,2013-05-16 18:43:00,
2013-05-16 14:48:00,79.2,46.6,29.71,WSW,243,4.0,-999.0,32,-99.99,,,-99.99,custom,2013-05-16 18:48:00,
2013-05-16 14:53:00,80.4,46.0,29.68,SW,235,2.0,-999.0,30,-99.99,,,-99.99,custom,2013-05-16 18:53:00,
2013-05-16 14:58:00,80.6,48.0,29.68,WSW,253,2.0,-999.0,32,-99.99,,,-99.99,custom,2013-05-16 18:58:00,
2013-05-16 15:03:00,79.7,45.0,29.70,WSW,249,8.0,-999.0,29,-99.99,,,-99.99,custom,2013-05-16 19:03:00,
2013-05-16 15:08:00,79.9,44.2,29.69,WNW,295,8.0,-999.0,28,-99.99,,,-99.99,custom,2013-05-16 19:08:00,
2013-05-16 15:13:00,78.8,46.6,29.68,SW,232,16.0,-999.0,32,-99.99,,,-99.99,custom,2013-05-16 19:13:00,
2013-05-16 15:18:00,79.9,46.2,29.69,NNW,338,1.0,-999.0,30,-99.99,,,-99.99,custom,2013-05-16 19:18:00,
2013-05-16 15:23:00,80.2,45.7,29.68,WSW,250,4.0,-999.0,29,-99.99,,,-99.99,custom,2013-05-16 19:23:00,
2013-05-16 15:28:00,80.4,45.3,29.70,NW,305,7.0,-999.0,29,-99.99,,,-99.99,custom,2013-05-16 19:28:00,
2013-05-16 15:33:00,81.9,46.4,29.70,NE,48,1.0,-999.0,29,-99.99,,,-99.99,custom,2013-05-16 19:33:00,
2013-05-16 15:38:00,81.0,45.9,29.69,SW,226,8.0,-999.0,29,-99.99,,,-99.99,custom,2013-05-16 19:38:00,
2013-05-16 15:43:00,78.1,40.3,29.69,WNW,290,16.0,-999.0,26,-99.99,,,-99.99,custom,2013-05-16 19:43:00,
2013-05-16 15:48:00,78.8,41.5,29.69,West,269,2.0,-999.0,26,-99.99,,,-99.99,custom,2013-05-16 19:48:00,
2013-05-16 15:53:00,79.0,41.9,29.70,SW,235,5.0,-999.0,26,-99.99,,,-99.99,custom,2013-05-16 19:53:00,
2013-05-16 15:58:00,79.9,44.2,29.69,ENE,74,2.0,-999.0,28,-99.99,,,-99.99,custom,2013-05-16 19:58:00,
2013-05-16 16:03:00,79.0,42.8,29.70,WNW,285,4.0,-999.0,27,-99.99,,,-99.99,custom,2013-05-16 20:03:00,
2013-05-16 16:08:00,80.8,43.3,29.70,NW,326,4.0,-999.0,26,-99.99,,,-99.99,custom,2013-05-16 20:08:00,
2013-05-16 16:13:00,79.2,43.0,29.69,SW,228,5.0,-999.0,27,-99.99,,,-99.99,custom,2013-05-16 20:13:00,
2013-05-16 16:18:00,80.1,45.5,29.68,North,6,1.0,-999.0,29,-99.99,,,-99.99,custom,2013-05-16 20:18:00,
2013-05-16 16:23:00,79.9,42.4,29.70,NW,307,8.0,-999.0,26,-99.99,,,-99.99,custom,2013-05-16 20:23:00,
2013-05-16 16:28:00,79.9,43.9,29.72,West,279,3.0,-999.0,28,-99.99,,,-99.99,custom,2013-05-16 20:28:00,
2013-05-16 16:33:00,79.3,43.9,29.66,NW,308,1.0,-999.0,28,-99.99,,,-99.99,custom,2013-05-16 20:33:00,
2013-05-16 16:38:00,79.9,43.3,29.75,WSW,255,8.0,-999.0,27,-99.99,,,-99.99,custom,2013-05-16 20:38:00,
2013-05-16 16:43:00,80.8,45.0,29.68,WNW,290,0.0,-999.0,28,-99.99,,,-99.99,custom,2013-05-16 20:43:00,
2013-05-16 16:48:00,80.8,43.2,29.70,West,263,1.0,-999.0,26,-99.99,,,-99.99,custom,2013-05-16 20:48:00,
2013-05-16 16:53:00,80.8,45.3,29.67,SSW,210,2.0,-999.0,28,-99.99,,,-99.99,custom,2013-05-16 20:53:00,
2013-05-16 16:58:00,82.6,47.3,29.72,NNE,15,2.0,-999.0,29,-99.99,,,-99.99,custom,2013-05-16 20:58:00,
2013-05-16 17:03:00,82.0,45.3,29.70,SE,132,4.0,-999.0,27,-99.99,,,-99.99,custom,2013-05-16 21:03:00,
2013-05-16 17:08:00,80.8,43.2,29.70,SW,223,4.0,-999.0,26,-99.99,,,-99.99,custom,2013-05-16 21:08:00,
2013-05-16 17:13:00,79.9,44.4,29.68,ENE,77,2.0,-999.0,28,-99.99,,,-99.99,custom,2013-05-16 21:13:00,
2013-05-16 17:18:00,79.9,46.9,29.69,West,267,2.0,-999.0,31,-99.99,,,-99.99,custom,2013-05-16 21:18:00,
2013-05-16 17:23:00,77.9,40.6,29.72,SSW,202,3.0,-999.0,26,-99.99,,,-99.99,custom,2013-05-16 21:23:00,
2013-05-16 17:28:00,79.9,45.7,29.71,SW,236,1.0,-999.0,30,-99.99,,,-99.99,custom,2013-05-16 21:28:00,
2013-05-16 17:33:00,80.8,43.3,29.69,SSE,166,1.0,-999.0,26,-99.99,,,-99.99,custom,2013-05-16 21:33:00,
2013-05-16 17:38:00,80.8,43.3,29.71,WSW,242,4.0,-999.0,26,-99.99,,,-99.99,custom,2013-05-16 21:38:00,
2013-05-16 17:43:00,79.9,41.0,29.72,WSW,247,3.0,-999.0,25,-99.99,,,-99.99,custom,2013-05-16 21:43:00,
2013-05-16 17:48:00,79.7,41.0,29.71,North,355,4.0,-999.0,25,-99.99,,,-99.99,custom,2013-05-16 21:48:00,
2013-05-16 17:53:00,79.9,43.2,29.70,WNW,285,2.0,-999.0,27,-99.99,,,-99.99,custom,2013-05-16 21:53:00,
2013-05-16 17:58:00,78.8,41.7,29.68,WSW,257,9.0,-999.0,26,-99.99,,,-99.99,custom,2013-05-16 21:58:00,
2013-05-16 18:03:00,79.3,41.4,29.71,WSW,254,4.0,-999.0,26,-99.99,,,-99.99,custom,2013-05-16 22:03:00,
2013-05-16 18:08:00,80.2,44.4,29.70,NNE,25,1.0,-999.0,28,-99.99,,,-99.99,custom,2013-05-16 22:08:00,
2013-05-16 18:13:00,79.0,41.5,29.73,West,274,6.0,-999.0,26,-99.99,,,-99.99,custom,2013-05-16 22:13:00,
2013-05-16 18:18:00,79.5,41.5,29.70,NW,304,3.0,-999.0,26,-99.99,,,-99.99,custom,2013-05-16 22:18:00,
2013-05-16 18:23:00,79.0,41.7,29.71,West,269,4.0,-999.0,26,-99.99,,,-99.99,custom,2013-05-16 22:23:00,
2013-05-16 18:28:00,79.0,40.6,29.70,NW,325,4.0,-999.0,25,-99.99,,,-99.99,custom,2013-05-16 22:28:00,
2013-05-16 18:33:00,78.8,43.0,29.72,NW,319,5.0,-999.0,28,-99.99,,,-99.99,custom,2013-05-16 22:33:00,
2013-05-16 18:38:00,79.0,43.0,29.72,West,277,4.0,-999.0,27,-99.99,,,-99.99,custom,2013-05-16 22:38:00,
2013-05-16 18:43:00,78.3,40.6,29.74,West,272,3.0,-999.0,26,-99.99,,,-99.99,custom,2013-05-16 22:43:00,
2013-05-16 18:48:00,78.6,43.3,29.73,WSW,250,4.0,-999.0,28,-99.99,,,-99.99,custom,2013-05-16 22:48:00,
2013-05-16 18:53:00,78.3,42.6,29.74,WSW,257,5.0,-999.0,28,-99.99,,,-99.99,custom,2013-05-16 22:53:00,
2013-05-16 18:58:00,77.4,39.6,29.74,West,263,7.0,-999.0,25,-99.99,,,-99.99,custom,2013-05-16 22:58:00,
2013-05-16 19:03:00,77.9,45.0,29.72,WNW,288,3.0,-999.0,31,-99.99,,,-99.99,custom,2013-05-16 23:03:00,
2013-05-16 19:08:00,77.9,43.2,29.78,NW,323,3.0,-999.0,29,-99.99,,,-99.99,custom,2013-05-16 23:08:00,
2013-05-16 19:13:00,76.6,43.5,29.74,WNW,301,3.0,-999.0,30,-99.99,,,-99.99,custom,2013-05-16 23:13:00,
2013-05-16 19:18:00,76.5,42.4,29.71,South,182,2.0,-999.0,29,-99.99,,,-99.99,custom,2013-05-16 23:18:00,
2013-05-16 19:23:00,75.9,42.4,29.70,ESE,110,3.0,-999.0,30,-99.99,,,-99.99,custom,2013-05-16 23:23:00,
2013-05-16 19:28:00,74.7,41.5,29.71,NNE,27,1.0,-999.0,30,-99.99,,,-99.99,custom,2013-05-16 23:28:00,
2013-05-16 19:33:00,74.1,42.4,29.72,WSW,255,1.0,-999.0,32,-99.99,,,-99.99,custom,2013-05-16 23:33:00,
2013-05-16 19:38:00,73.4,44.4,29.71,SSW,208,0.0,-999.0,35,-99.99,,,-99.99,custom,2013-05-16 23:38:00,
2013-05-16 19:43:00,72.9,41.0,29.72,West,263,3.0,-999.0,31,-99.99,,,-99.99,custom,2013-05-16 23:43:00,
2013-05-16 19:48:00,72.9,39.7,29.74,WNW,287,2.0,-999.0,30,-99.99,,,-99.99,custom,2013-05-16 23:48:00,
2013-05-16 19:53:00,72.7,42.4,29.74,SW,214,2.0,-999.0,33,-99.99,,,-99.99,custom,2013-05-16 23:53:00,
2013-05-16 19:58:00,72.7,40.3,29.73,SW,234,4.0,-999.0,31,-99.99,,,-99.99,custom,2013-05-16 23:58:00,
2013-05-16 20:03:00,72.3,41.2,29.75,West,259,3.0,-999.0,32,-99.99,,,-99.99,custom,2013-05-17 00:03:00,
2013-05-16 20:08:00,72.0,40.1,29.74,WSW,253,7.0,-999.0,31,-99.99,,,-99.99,custom,2013-05-17 00:08:00,
2013-05-16 20:13:00,71.8,40.1,29.73,West,280,1.0,-999.0,31,-99.99,,,-99.99,custom,2013-05-17 00:13:00,
2013-05-16 20:18:00,71.4,41.9,29.73,SSW,210,1.0,-999.0,34,-99.99,,,-99.99,custom,2013-05-17 00:18:00,
2013-05-16 20:23:00,71.4,41.4,29.73,WSW,249,1.0,-999.0,33,-99.99,,,-99.99,custom,2013-05-17 00:23:00,
2013-05-16 20:28:00,71.1,40.6,29.75,West,260,2.0,-999.0,33,-99.99,,,-99.99,custom,2013-05-17 00:28:00,
2013-05-16 20:33:00,70.7,41.0,29.76,NNW,344,3.0,-999.0,34,-99.99,,,-99.99,custom,2013-05-17 00:33:00,
2013-05-16 20:38:00,71.1,39.2,29.75,North,10,2.0,-999.0,31,-99.99,,,-99.99,custom,2013-05-17 00:38:00,
2013-05-16 20:43:00,70.9,37.0,29.75,WNW,300,4.0,-999.0,29,-99.99,,,-99.99,custom,2013-05-17 00:43:00,
2013-05-16 20:48:00,70.9,37.0,29.77,West,273,4.0,-999.0,29,-99.99,,,-99.99,custom,2013-05-17 00:48:00,
2013-05-16 20:53:00,70.7,38.1,29.78,WSW,251,8.0,-999.0,30,-99.99,,,-99.99,custom,2013-05-17 00:53:00,
2013-05-16 20:58:00,70.2,38.5,29.78,WNW,294,3.0,-999.0,31,-99.99,,,-99.99,custom,2013-05-17 00:58:00,
2013-05-16 21:03:00,70.3,34.9,29.78,NW,317,3.0,-999.0,27,-99.99,,,-99.99,custom,2013-05-17 01:03:00,
2013-05-16 21:08:00,70.2,35.6,29.75,West,270,7.0,-999.0,28,-99.99,,,-99.99,custom,2013-05-17 01:08:00,
2013-05-16 21:13:00,70.0,37.9,29.75,NE,39,1.0,-999.0,31,-99.99,,,-99.99,custom,2013-05-17 01:13:00,
2013-05-16 21:18:00,70.0,36.3,29.75,NNW,340,1.0,-999.0,29,-99.99,,,-99.99,custom,2013-05-17 01:18:00,
2013-05-16 21:23:00,69.8,38.1,29.78,SW,228,1.0,-999.0,31,-99.99,,,-99.99,custom,2013-05-17 01:23:00,
2013-05-16 21:28:00,69.6,37.2,29.80,North,358,3.0,-999.0,30,-99.99,,,-99.99,custom,2013-05-17 01:28:00,
2013-05-16 21:33:00,69.6,37.8,29.84,SSW,203,0.0,-999.0,31,-99.99,,,-99.99,custom,2013-05-17 01:33:00,
2013-05-16 21:38:00,69.1,33.8,29.79,NW,310,2.0,-999.0,27,-99.99,,,-99.99,custom,2013-05-17 01:38:00,
2013-05-16 21:43:00,68.9,34.7,29.79,NW,321,3.0,-999.0,28,-99.99,,,-99.99,custom,2013-05-17 01:43:00,
2013-05-16 21:48:00,68.7,35.4,29.76,NNW,340,1.0,-999.0,29,-99.99,,,-99.99,custom,2013-05-17 01:48:00,
2013-05-16 21:53:00,68.5,36.7,29.81,SE,135,0.0,-999.0,31,-99.99,,,-99.99,custom,2013-05-17 01:53:00,
2013-05-16 21:58:00,68.5,35.1,29.80,West,278,3.0,-999.0,29,-99.99,,,-99.99,custom,2013-05-17 01:58:00,
2013-05-16 22:03:00,68.0,37.8,29.82,NNE,20,0.0,-999.0,33,-99.99,,,-99.99,custom,2013-05-17 02:03:00,
2013-05-16 22:08:00,67.8,36.7,29.82,WNW,284,0.0,-999.0,31,-99.99,,,-99.99,custom,2013-05-17 02:08:00,
2013-05-16 22:13:00,67.6,39.6,29.84,East,88,0.0,-999.0,35,-99.99,,,-99.99,custom,2013-05-17 02:13:00,
2013-05-16 22:18:00,67.5,37.4,29.85,NNE,18,0.0,-999.0,33,-99.99,,,-99.99,custom,2013-05-17 02:18:00,
2013-05-16 22:23:00,66.7,36.0,29.84,West,277,2.0,-999.0,32,-99.99,,,-99.99,custom,2013-05-17 02:23:00,
2013-05-16 22:28:00,66.6,40.5,29.84,ESE,102,0.0,-999.0,38,-99.99,,,-99.99,custom,2013-05-17 02:28:00,
2013-05-16 22:33:00,66.4,37.9,29.82,North,0,0.0,-999.0,35,-99.99,,,-99.99,custom,2013-05-17 02:33:00,
2013-05-16 22:38:00,66.0,36.9,29.84,WNW,285,0.0,-999.0,34,-99.99,,,-99.99,custom,2013-05-17 02:38:00,
2013-05-16 22:43:00,65.7,37.4,29.86,SSE,147,0.0,-999.0,35,-99.99,,,-99.99,custom,2013-05-17 02:43:00,
2013-05-16 22:48:00,65.7,38.3,29.88,SSE,159,0.0,-999.0,36,-99.99,,,-99.99,custom,2013-05-17 02:48:00,
2013-05-16 22:53:00,65.5,38.8,29.83,SSE,167,0.0,-999.0,37,-99.99,,,-99.99,custom,2013-05-17 02:53:00,
2013-05-16 22:58:00,65.3,37.6,29.86,SSW,213,1.0,-999.0,36,-99.99,,,-99.99,custom,2013-05-17 02:58:00,
2013-05-16 23:03:00,64.9,36.1,29.86,WSW,250,2.0,-999.0,34,-99.99,,,-99.99,custom,2013-05-17 03:03:00,
2013-05-16 23:08:00,64.8,36.9,29.86,SW,218,3.0,-999.0,35,-99.99,,,-99.99,custom,2013-05-17 03:08:00,
2013-05-16 23:13:00,64.8,36.5,29.86,SW,217,1.0,-999.0,35,-99.99,,,-99.99,custom,2013-05-17 03:13:00,
2013-05-16 23:18:00,64.8,36.5,29.88,NNE,19,1.0,-999.0,35,-99.99,,,-99.99,custom,2013-05-17 03:18:00,
2013-05-16 23:23:00,64.8,35.2,29.86,NNE,33,1.0,-999.0,33,-99.99,,,-99.99,custom,2013-05-17 03:23:00,
2013-05-16 23:28:00,64.4,39.0,29.86,NNE,21,2.0,-999.0,39,-99.99,,,-99.99,custom,2013-05-17 03:28:00,
2013-05-16 23:33:00,63.7,41.7,29.88,NNE,32,1.0,-999.0,44,-99.99,,,-99.99,custom,2013-05-17 03:33:00,
2013-05-16 23:38:00,63.1,41.9,29.88,NNE,12,2.0,-999.0,46,-99.99,,,-99.99,custom,2013-05-17 03:38:00,
2013-05-16 23:43:00,62.2,42.8,29.85,North,8,5.0,-999.0,49,-99.99,,,-99.99,custom,2013-05-17 03:43:00,
2013-05-16 23:48:00,61.9,43.7,29.87,NNE,20,3.0,-999.0,51,-99.99,,,-99.99,custom,2013-05-17 03:48:00,
2013-05-16 23:53:00,61.2,43.3,29.88,NE,42,1.0,-999.0,52,-99.99,,,-99.99,custom,2013-05-17 03:53:00,
2013-05-16 23:58:00,60.6,45.1,29.85,NE,50,1.0,-999.0,56,-99.99,,,-99.99,custom,2013-05-17 03:58:00,